Orbital Elements at Epoch 2459200.5 (2020-Dec-17.0) TDB
Reference: JPL 22 (heliocentric ecliptic J2000)
Element | Value | Uncertainty (1-sigma) | Units |
e | .1488524664386974 | 4.4345e-08 | |
a | 2.420489500922709 | 9.9883e-09 | au |
q | 2.060193668721392 | 1.0464e-07 | au |
i | 2.897370188320493 | 3.047e-06 | deg |
node | 55.46544061876805 | 9.0168e-05 | deg |
peri | 98.47876845982221 | 9.0732e-05 | deg |
M | 193.3293710424661 | 1.153e-05 | deg |
tp | 2459837.309898184763 (2022-Sep-14.80989818) | 4.6241e-05 | TDB |
period | 1375.476679846969 3.77 | 8.514e-06 2.331e-08 | d yr |
n | .2617274471276769 | 1.6201e-09 | deg/d |
Q | 2.780785333124026 | 1.1475e-08 | au |
|
| | Orbit Determination Parameters
Additional Information
|